Wind_Speed
23 25 25 25 24 24 24 21 18 16 14 13 11 11 13 16 17 19 22 26 29 30 27 26 26 28 30 31 31 31 32 26 19 18 17 21 29 34 39 41 40 35 36 31 30
23 24 24 24 23 22 22 23 19 18 18 15 13 13 13 13 14 18 19 24 29 34 33 33 33 35 36 35 35 35 34 30 27 26 25 28 33 36 39 41 39 34 36 35 31
23 25 26 26 25 23 23 22 20 18 17 15 15 16 15 15 17 20 19 19 21 25 28 32 33 37 39 39 39 38 38 36 35 31 32 35 38 39 40 39 37 37 34 35 33
25 27 29 29 28 26 24 24 23 22 20 19 19 20 20 21 23 22 19 20 18 20 24 26 27 29 33 36 40 43 41 40 40 39 39 37 40 42 40 40 40 35 34 33 33
26 28 30 30 29 28 26 26 25 26 26 25 25 27 27 29 30 31 26 23 24 28 29 30 29 31 34 36 37 37 35 37 38 41 42 43 42 42 39 45 46 42 36 36 35
27 30 32 31 30 30 30 28 27 28 29 29 29 31 33 35 34 35 32 33 32 35 35 36 38 41 42 41 41 41 40 39 40 41 41 41 42 45 41 46 45 46 41 38 39
29 34 31 31 31 32 31 33 35 35 34 35 36 37 41 40 40 39 39 41 43 45 45 46 48 49 52 51 51 49 48 48 47 45 45 45 40 40 43 44 44 44 47 45 43
33 33 34 33 33 35 37 36 36 36 36 38 38 41 41 43 45 45 46 48 49 51 53 55 57 58 59 61 61 59 58 57 50 48 49 47 42 44 42 44 43 45 47 50 50
33 35 36 35 36 37 38 37 38 37 37 39 42 47 49 49 50 51 52 53 54 56 59 61 63 66 67 66 67 68 64 55 58 58 53 55 50 48 45 45 46 48 52 54 56
37 38 37 39 40 40 39 39 38 38 39 42 47 51 52 54 54 55 56 59 67 68 66 64 62 65 68 67 69 57 62 68 67 64 61 60 54 54 54 50 51 54 56 59 59
38 40 40 42 41 36 37 39 40 45 49 48 51 55 57 59 61 64 68 74 74 72 70 73 74 71 67 69 67 69 72 73 73 71 70 70 67 61 58 58 56 56 59 61 64
40 42 44 43 42 41 42 42 46 51 54 55 58 61 65 69 73 73 75 76 78 78 77 80 79 75 74 75 76 77 79 80 77 76 77 75 75 65 62 63 65 61 61 63 63
41 45 46 43 44 45 46 49 53 57 59 60 64 71 72 73 77 79 79 82 82 82 80 80 78 78 75 74 75 77 80 79 81 78 80 80 82 75 70 69 66 66 65 65 64
45 45 44 44 46 49 52 57 62 66 67 76 79 76 80 80 84 87 86 86 87 87 84 82 76 74 74 74 77 78 78 79 80 81 83 82 83 73 76 76 73 70 69 67 65
45 46 47 48 52 57 62 66 70 74 78 82 80 83 87 87 91 91 88 89 83 79 77 75 76 75 72 71 72 74 72 73 74 74 73 77 75 79 80 81 76 75 75 74 70
46 48 51 55 59 62 67 71 75 77 83 83 88 91 92 93 88 85 76 70 69 64 65 65 66 66 67 67 65 65 66 61 59 55 55 57 54 65 76 77 77 77 75 76 73
50 54 56 61 64 69 73 76 81 85 88 91 92 97 97 91 80 69 63 60 59 57 55 53 53 54 50 53 49 49 50 50 54 56 58 54 51 52 56 62 63 69 73 72 72
54 58 63 67 70 73 77 82 85 90 93 96 96 92 80 74 62 55 53 49 47 44 43 42 39 34 29 29 37 34 34 34 39 28 35 37 47 51 44 49 52 52 55 59 66
57 63 68 70 73 77 82 87 91 95 98 102 94 83 71 63 57 50 44 39 32 28 27 31 29 22 21 20 23 24 18 21 34 47 34 33 32 32 52 57 60 63 58 53 50
62 67 70 73 76 82 87 91 94 99 97 86 77 70 63 54 47 42 35 29 24 16 21 26 32 23 17 15 17 21 15 11 13 15 40 28 29 42 44 46 51 48 54 53 57
65 69 71 75 80 86 89 94 98 94 85 74 67 60 51 47 40 35 28 23 22 22 23 26 28 19 17 15 14 14 16 15 16 17 14 33 32 28 22 20 40 41 53 57 47
67 69 74 78 84 88 93 97 94 77 71 66 57 50 43 35 31 27 25 24 24 23 22 26 26 20 13 11 14 16 17 17 20 24 26 28 36 34 24 23 29 20 28 33 49
70 74 78 83 86 90 93 87 76 68 65 60 50 41 33 25 27 27 24 22 22 24 25 23 25 18 17 15 16 14 13 16 22 27 26 26 28 38 28 28 37 30 29 28 37
72 75 79 85 88 89 86 77 67 64 58 53 43 33 28 24 26 27 29 26 22 22 22 23 21 18 13 15 19 20 15 16 17 20 24 27 23 19 19 19 22 29 32 36 31
73 76 81 84 82 81 74 65 61 58 53 49 40 29 23 30 32 32 34 33 20 19 19 19 17 16 15 18 17 16 17 18 20 20 21 21 25 19 17 21 18 20 26 28 31
72 76 81 81 76 70 64 61 58 53 51 46 41 32 30 33 36 36 35 31 18 15 15 14 17 18 15 14 10 10 14 18 14 13 15 16 20 26 16 20 21 22 20 25 32
74 76 78 76 71 65 59 58 55 49 47 45 41 34 28 28 28 28 31 17 17 16 13 11 14 18 17 13 14 14 15 19 15 13 14 16 18 27 23 17 20 22 23 22 20
Wind_Direction
9 9 6 3 6 10 13 11 9 2 350 339 328 318 309 296 289 277 268 273 276 285 278 279 274 271 267 268 272 271 276 283 291 285 275 248 248 252 256 261 263 264 268 261 256
5 10 4 357 352 352 355 3 7 8 9 356 350 345 337 332 323 312 294 283 279 282 283 279 275 272 273 272 270 271 278 280 281 270 264 250 246 248 257 261 264 259 259 256 253
355 356 356 352 349 341 336 339 349 349 348 353 353 348 336 329 327 330 316 304 293 286 285 284 279 276 276 276 274 273 277 274 270 267 259 253 249 248 254 261 261 257 254 256 256
345 347 345 342 343 341 334 326 323 326 329 328 327 325 323 316 312 312 304 303 297 297 294 289 288 291 286 282 278 275 272 269 271 266 261 257 253 255 260 259 257 255 252 255 254
335 336 335 331 330 331 332 323 319 316 313 314 313 312 313 311 314 308 306 295 286 292 294 290 285 287 288 285 284 282 283 275 269 266 262 260 257 257 261 260 257 258 254 253 254
323 328 325 325 325 322 324 322 317 311 309 308 307 308 308 305 303 301 299 297 290 290 287 284 280 278 279 284 284 284 281 280 278 273 266 263 260 257 254 257 259 263 261 255 252
320 321 323 323 322 319 317 317 316 314 308 304 304 305 303 303 301 299 296 292 291 290 289 286 282 279 278 278 279 280 278 277 274 276 274 268 262 259 259 253 251 252 255 252 250
318 318 319 319 318 317 314 311 310 307 304 299 299 300 300 300 298 295 291 288 286 284 283 283 284 283 282 281 279 280 277 276 272 272 275 273 266 260 256 253 251 250 251 253 250
317 316 317 317 315 312 310 309 306 301 300 298 293 295 295 297 297 295 292 289 288 289 287 285 285 284 283 282 279 279 278 272 272 273 266 263 263 261 253 250 246 241 243 244 246
316 318 317 315 313 311 308 305 300 299 300 301 299 299 296 294 295 295 294 292 293 294 292 287 283 281 280 280 280 277 271 268 267 264 259 261 261 260 260 253 245 240 240 243 244
318 319 317 313 313 312 309 305 303 302 300 299 302 302 300 298 294 293 294 294 294 291 288 285 283 283 282 280 277 272 271 272 273 273 271 268 264 260 257 257 254 246 243 242 244
319 319 316 312 312 310 308 308 307 308 306 302 300 300 299 298 298 297 294 293 291 289 288 286 284 284 282 280 278 277 277 274 272 271 269 268 264 263 258 254 252 251 245 243 243
317 319 317 314 313 312 312 310 309 309 307 305 304 303 304 304 300 296 294 293 293 291 291 291 290 288 283 278 273 271 269 270 268 260 260 264 263 263 260 257 254 251 248 243 241
317 319 317 314 314 314 313 311 312 312 311 310 309 308 306 305 301 299 298 296 296 296 294 291 285 277 271 267 264 261 258 258 256 255 254 251 256 254 254 250 250 248 247 243 242
319 318 315 314 315 316 314 313 313 312 315 314 313 310 309 308 307 309 306 303 300 296 290 283 279 274 269 265 263 262 262 262 260 260 261 256 259 245 246 248 245 243 243 241 239
319 317 316 317 317 316 317 316 315 316 319 317 314 314 312 313 313 310 304 295 290 284 281 278 276 274 273 272 269 267 263 258 265 268 262 264 270 265 252 252 248 243 242 242 240
321 318 318 319 319 319 319 320 321 320 319 317 316 315 316 316 311 304 297 292 288 285 280 276 276 276 277 275 275 275 271 264 256 254 258 262 261 252 259 257 260 255 245 242 242
319 320 321 322 322 322 322 322 320 319 320 319 320 321 317 313 307 303 299 296 294 292 287 283 277 280 287 293 286 280 275 264 243 242 242 241 239 246 253 254 255 256 254 252 249
319 322 323 323 323 323 323 323 323 323 322 323 323 321 317 314 312 311 308 307 309 307 303 303 293 303 313 302 291 281 279 257 247 227 228 250 255 248 245 250 250 247 249 249 249
321 322 322 324 325 324 325 326 325 326 328 328 325 322 320 318 317 313 314 312 312 299 300 305 303 317 313 286 283 285 288 261 234 250 240 241 247 251 251 238 242 246 244 241 247
322 322 324 326 326 327 328 328 329 331 331 329 326 324 321 319 319 320 323 311 304 307 299 302 309 328 317 278 280 272 282 281 240 232 223 235 249 249 240 225 237 240 238 224 230
324 325 326 328 328 330 330 331 332 335 334 331 328 324 322 324 329 336 328 320 314 312 310 312 313 319 319 301 299 287 287 282 254 236 234 243 245 258 255 244 245 242 226 225 219
326 328 329 331 331 332 334 336 337 337 335 334 331 327 329 336 336 349 331 323 319 315 316 317 319 320 325 311 298 296 287 292 278 262 250 263 249 245 255 264 257 255 247 247 230
329 331 332 332 333 335 337 339 340 339 338 337 338 330 332 330 319 331 336 330 312 317 307 313 310 312 308 313 315 311 292 288 296 275 266 269 260 242 241 248 246 255 249 241 234
332 333 333 335 338 340 341 341 341 341 342 343 343 325 323 309 310 312 316 329 320 314 312 307 313 301 306 311 305 304 310 304 289 286 276 266 258 245 242 241 253 236 241 247 246
333 334 334 339 340 342 342 342 343 345 347 350 345 336 314 308 307 310 314 319 320 325 319 296 324 284 305 308 305 345 350 329 295 270 281 260 248 240 254 230 234 239 237 238 238
335 335 338 342 342 343 343 342 345 349 352 353 351 344 334 322 315 313 314 321 327 324 305 299 307 297 299 302 298 311 330 335 338 275 267 274 240 232 249 229 233 240 236 235 228
Height
5783 5780 5777 5775 5773 5771 5769 5765 5762 5759 5757 5755 5754 5753 5751 5750 5749 5748 5747 5745 5741 5740 5742 5741 5741 5739 5736 5736 5736 5735 5731 5733 5738 5739 5741 5740 5739 5739 5737 5737 5738 5741 5741 5745 5746
5782 5780 5777 5775 5773 5771 5768 5765 5762 5760 5757 5755 5752 5750 5749 5747 5746 5744 5743 5740 5738 5734 5735 5735 5734 5731 5730 5730 5728 5728 5726 5728 5732 5731 5731 5729 5729 5729 5729 5729 5731 5733 5733 5734 5737
5781 5778 5776 5774 5771 5768 5766 5764 5762 5759 5757 5754 5751 5749 5747 5744 5743 5741 5738 5735 5733 5731 5729 5727 5726 5724 5722 5721 5720 5720 5717 5719 5719 5721 5721 5720 5719 5719 5720 5721 5724 5723 5724 5726 5729
5779 5775 5772 5769 5767 5765 5762 5760 5758 5755 5753 5751 5749 5746 5743 5741 5741 5737 5734 5731 5729 5726 5723 5721 5719 5717 5715 5713 5712 5708 5709 5709 5708 5709 5709 5710 5710 5709 5711 5714 5713 5714 5717 5719 5720
5777 5774 5770 5766 5763 5761 5759 5755 5753 5751 5748 5745 5744 5741 5739 5736 5734 5730 5728 5726 5723 5720 5717 5714 5712 5708 5706 5705 5703 5700 5702 5699 5698 5697 5698 5698 5700 5701 5704 5703 5702 5706 5709 5711 5713
5774 5771 5767 5763 5758 5755 5752 5750 5748 5745 5742 5740 5737 5734 5732 5730 5726 5723 5720 5718 5715 5712 5709 5706 5703 5700 5696 5694 5692 5691 5690 5690 5689 5687 5686 5687 5691 5689 5697 5693 5697 5697 5700 5702 5704
5770 5767 5762 5758 5754 5750 5748 5744 5741 5738 5735 5732 5729 5727 5724 5722 5718 5715 5713 5708 5705 5702 5698 5695 5691 5688 5684 5683 5680 5680 5678 5676 5676 5676 5676 5677 5681 5680 5683 5682 5684 5687 5687 5689 5692
5765 5761 5757 5753 5750 5746 5743 5739 5736 5733 5729 5725 5722 5719 5715 5711 5708 5705 5701 5697 5693 5689 5684 5680 5676 5672 5669 5666 5664 5664 5662 5662 5664 5662 5661 5663 5669 5671 5670 5670 5673 5674 5677 5677 5678
5759 5755 5751 5747 5743 5739 5735 5731 5728 5724 5721 5717 5714 5710 5706 5701 5697 5693 5689 5683 5679 5674 5670 5665 5660 5656 5653 5649 5646 5645 5645 5647 5646 5645 5645 5646 5658 5655 5655 5657 5657 5658 5659 5661 5662
5753 5749 5745 5740 5736 5732 5727 5724 5720 5717 5713 5708 5704 5701 5695 5689 5684 5678 5673 5668 5661 5656 5650 5645 5639 5635 5633 5629 5628 5628 5624 5624 5623 5623 5624 5629 5641 5641 5641 5642 5643 5642 5644 5645 5648
5746 5742 5738 5732 5728 5724 5721 5717 5714 5710 5705 5699 5695 5689 5682 5676 5671 5665 5658 5650 5644 5638 5631 5626 5620 5615 5611 5607 5606 5603 5601 5603 5603 5603 5603 5608 5619 5623 5625 5625 5627 5629 5630 5631 5634
5739 5734 5728 5723 5719 5716 5712 5707 5703 5698 5692 5687 5681 5673 5666 5659 5651 5645 5640 5631 5622 5615 5608 5602 5596 5592 5588 5582 5578 5576 5575 5580 5579 5580 5576 5583 5594 5601 5604 5604 5605 5610 5614 5617 5619
5731 5726 5721 5716 5712 5707 5703 5697 5691 5685 5679 5671 5664 5656 5647 5639 5630 5625 5615 5606 5597 5590 5582 5575 5571 5564 5560 5555 5549 5548 5545 5551 5549 5552 5550 5554 5565 5580 5581 5582 5588 5592 5595 5598 5603
5725 5719 5714 5709 5705 5699 5693 5686 5678 5669 5661 5655 5644 5637 5627 5613 5606 5595 5586 5580 5569 5562 5555 5548 5541 5532 5529 5525 5520 5518 5518 5518 5521 5524 5526 5531 5530 5557 5555 5557 5565 5569 5575 5581 5585
5716 5710 5705 5698 5693 5687 5680 5670 5661 5653 5639 5632 5621 5610 5601 5593 5576 5564 5551 5546 5536 5529 5521 5516 5508 5503 5499 5496 5492 5491 5492 5495 5499 5501 5503 5506 5507 5528 5530 5528 5537 5545 5551 5558 5567
5708 5702 5696 5690 5682 5674 5665 5655 5645 5635 5619 5609 5598 5585 5577 5563 5546 5535 5525 5511 5506 5502 5493 5489 5483 5479 5475 5471 5468 5472 5474 5480 5483 5486 5483 5494 5496 5498 5504 5504 5511 5521 5529 5535 5546
5699 5693 5686 5677 5669 5658 5648 5637 5627 5615 5602 5590 5577 5561 5546 5535 5523 5508 5496 5491 5484 5480 5476 5473 5467 5460 5456 5451 5453 5453 5455 5460 5465 5469 5472 5484 5483 5471 5481 5486 5492 5499 5508 5515 5523
5690 5682 5673 5664 5654 5643 5632 5620 5610 5598 5583 5565 5548 5533 5518 5505 5503 5492 5480 5472 5464 5460 5456 5452 5454 5450 5446 5442 5440 5443 5442 5446 5448 5456 5459 5463 5455 5455 5465 5468 5473 5481 5489 5497 5505
5680 5670 5661 5651 5640 5628 5615 5602 5589 5574 5559 5542 5528 5512 5502 5488 5477 5471 5464 5457 5453 5448 5444 5441 5443 5442 5439 5436 5435 5433 5434 5435 5434 5442 5448 5444 5444 5447 5452 5453 5458 5464 5473 5480 5488
5668 5658 5648 5636 5624 5611 5599 5584 5569 5552 5534 5517 5501 5492 5479 5472 5468 5460 5454 5449 5446 5443 5439 5437 5432 5436 5434 5431 5430 5427 5428 5429 5431 5434 5437 5438 5436 5439 5441 5443 5448 5453 5458 5465 5473
5657 5646 5635 5622 5610 5596 5583 5566 5547 5528 5516 5504 5488 5477 5469 5460 5457 5452 5447 5444 5439 5438 5435 5432 5430 5431 5427 5424 5424 5424 5423 5423 5425 5425 5423 5423 5425 5428 5431 5435 5440 5441 5446 5452 5461
5645 5635 5621 5607 5595 5579 5565 5548 5532 5517 5503 5489 5477 5467 5459 5453 5450 5446 5441 5437 5435 5432 5430 5427 5424 5423 5422 5420 5419 5419 5417 5417 5417 5418 5416 5414 5417 5420 5423 5426 5429 5433 5437 5442 5447
5631 5619 5607 5594 5582 5565 5546 5531 5518 5505 5492 5480 5468 5458 5454 5450 5445 5442 5438 5435 5432 5428 5425 5424 5419 5418 5417 5416 5415 5414 5413 5411 5410 5409 5410 5409 5410 5409 5412 5415 5419 5424 5429 5434 5437
5620 5607 5595 5580 5565 5550 5536 5521 5510 5493 5480 5470 5461 5454 5450 5447 5443 5439 5436 5433 5428 5425 5422 5419 5417 5415 5413 5411 5410 5409 5407 5406 5404 5403 5403 5404 5405 5405 5406 5410 5411 5414 5420 5426 5430
5609 5595 5582 5568 5551 5535 5523 5509 5498 5492 5477 5464 5458 5450 5444 5439 5438 5434 5431 5428 5425 5421 5418 5415 5413 5411 5410 5409 5407 5405 5403 5401 5399 5398 5397 5398 5400 5401 5401 5403 5406 5408 5410 5413 5418
5599 5584 5571 5556 5539 5527 5514 5502 5492 5479 5470 5460 5451 5444 5439 5433 5428 5425 5423 5422 5419 5417 5414 5412 5411 5408 5407 5406 5404 5402 5400 5397 5394 5393 5392 5391 5393 5396 5397 5398 5401 5402 5404 5406 5410
5586 5575 5559 5546 5532 5519 5507 5495 5485 5476 5464 5455 5447 5440 5435 5429 5424 5422 5417 5415 5414 5413 5411 5410 5408 5406 5404 5402 5401 5401 5397 5394 5389 5388 5387 5387 5387 5388 5391 5393 5395 5397 5399 5400 5402